Tracking 31027 objects as of 19-Jul-2025
HD Live streaming from Space Station
objects crossing your sky now

FENGYUN 1C DEB

Track FENGYUN 1C DEB now!
10-day predictions


NORAD ID: 32153
Int'l Code: 1999-025CSX
Perigee: 590.3 km
Apogee: 886.7 km
Inclination: 98.8 °
Period: 99.4 minutes
Semi major axis: 7109 km
RCS: 0.0005 m2 (small)
Launch date: May 10, 1999
Source: People's Republic of China (PRC)
Launch site: Taiyaun Space Center, China (TSC)

Note: This is SATELLITE DEBRIS
Your satellite tracking list
STARLINK-5403
Track 1 satellite(s)




NASA's NSSDC Master Catalog

Two Line Element Set (TLE):
1 32153U 99025CSX 25194.80867325  .00000376  00000-0  89335-4 0  9997
2 32153  98.7840  31.6914 0208462 319.6331  38.9546 14.48248739950249
Source of the keplerian elements: AFSPC